Wind_Speed
20 20 18 19 20 20 18 17 18 17 18 19 18 18 18 19 19 16 18 16 16 10 18 23 28 22 15 13 13 7 5 6 4 8 6 5 8 12 15 20 17 13 11 12 13 14 19 29 20 21 18 20 22 20
19 19 17 21 20 20 18 18 17 17 18 19 15 18 21 20 19 19 22 21 19 10 12 27 31 37 36 32 18 11 8 14 3 4 5 5 6 6 15 16 20 18 13 12 11 12 19 20 15 13 16 20 26 18
19 18 19 19 18 20 16 17 16 16 18 17 18 21 21 20 20 20 24 24 16 8 11 14 16 28 32 34 33 9 5 6 6 8 3 4 8 5 9 15 18 21 18 18 18 25 25 25 21 23 21 21 22 18
16 19 18 16 18 18 15 16 16 15 16 18 22 21 21 21 21 21 25 26 16 3 5 5 6 9 13 25 24 25 18 5 3 3 4 4 4 7 10 13 14 14 15 22 19 26 27 25 22 23 20 21 27 25
19 17 18 19 16 16 17 16 18 16 17 22 20 21 21 21 21 25 29 30 31 5 4 4 7 15 9 12 14 15 12 6 3 4 4 5 4 4 6 5 12 12 18 14 15 19 17 22 19 21 20 22 21 23
16 18 17 15 18 17 17 17 15 16 21 19 22 21 21 20 19 16 4 5 14 19 3 3 1 4 6 7 7 7 5 4 3 3 3 2 2 4 5 11 16 17 19 21 23 25 25 26 25 27 25 24 23 23
16 17 18 18 17 16 14 16 15 17 19 22 22 22 21 20 20 6 5 6 12 11 3 3 3 4 4 4 2 3 3 2 2 2 3 4 6 5 4 12 21 17 19 19 22 24 26 27 23 23 25 25 22 22
17 17 17 17 15 16 17 13 16 17 21 21 21 23 25 23 18 12 18 13 7 4 2 3 3 2 4 2 2 2 2 2 4 2 2 5 3 4 6 16 16 18 19 20 21 22 24 25 26 26 25 23 24 24
16 16 16 16 16 16 18 15 17 17 21 23 25 22 8 5 3 1 4 8 11 5 3 3 3 3 3 2 2 3 2 3 3 4 3 3 4 7 11 12 15 16 18 20 22 23 24 25 25 25 26 26 25 23
16 15 16 17 16 16 18 15 15 17 20 21 6 2 2 4 5 6 2 2 3 3 3 3 2 4 3 2 2 2 4 3 3 4 3 4 6 10 8 8 12 15 19 21 23 24 23 24 22 24 27 24 22 21
21 18 15 16 16 16 17 14 14 15 11 4 2 2 6 6 3 3 3 4 3 3 4 4 5 5 4 4 3 3 2 2 3 3 3 3 4 1 10 13 13 15 17 20 21 22 24 25 24 23 24 23 21 20
22 23 21 17 16 17 17 13 13 9 5 7 9 10 5 3 4 4 4 3 4 3 3 3 2 2 2 3 3 3 3 3 4 4 3 3 1 10 14 15 17 18 19 21 21 22 25 24 23 22 20 19 18 16
22 23 23 21 16 15 16 11 9 7 11 6 4 3 3 3 5 5 6 4 3 3 3 3 3 2 3 3 4 3 4 4 1 3 3 2 8 14 15 15 18 19 20 20 22 20 20 18 16 17 15 7 6 6
22 22 22 23 15 14 6 2 5 8 4 3 3 5 5 5 5 5 4 2 1 3 3 3 5 4 3 4 3 4 2 2 3 3 2 6 14 16 15 14 16 20 20 19 19 19 17 11 9 1 5 7 7 7
22 23 21 25 15 8 7 9 8 5 3 4 4 5 7 5 3 3 3 4 3 3 3 2 4 4 4 4 3 3 3 4 3 3 5 9 15 13 13 14 16 16 15 13 12 12 11 8 7 8 7 7 8 8
22 19 13 9 7 8 10 10 7 6 3 4 6 5 3 4 5 3 4 3 1 2 2 3 3 3 6 3 4 6 3 2 2 5 8 11 14 15 14 13 13 13 12 11 10 9 9 9 9 11 12 12 11 12
20 7 7 15 13 12 11 5 4 6 5 5 5 5 5 4 3 3 3 2 1 2 3 2 3 4 0 3 2 3 3 4 7 8 8 12 13 14 13 13 11 12 11 11 10 9 9 9 8 13 14 12 17 20
22 19 18 19 14 8 4 7 3 4 6 6 5 6 4 4 4 4 3 2 3 2 2 2 3 4 2 2 1 2 3 6 6 8 9 11 13 11 10 12 11 10 9 9 9 8 8 10 12 9 11 12 14 16
24 21 21 21 12 3 2 3 5 4 6 4 4 2 3 2 1 1 0 1 2 1 3 2 2 2 1 1 3 4 6 6 8 10 10 7 8 9 8 8 8 8 9 9 9 8 9 13 11 9 10 12 9 9
26 24 20 22 12 3 3 3 3 4 4 2 3 4 3 2 3 3 2 1 1 1 1 1 1 2 1 2 3 5 6 7 7 8 8 8 6 8 8 6 6 7 6 6 7 7 7 9 13 15 15 13 8 9
22 15 13 11 9 12 3 3 4 3 3 3 2 4 3 4 3 3 2 1 1 1 2 1 2 2 2 3 4 5 6 6 7 6 8 9 8 7 6 5 6 5 5 5 5 6 7 7 9 11 12 13 15 16
13 11 5 11 5 5 4 5 4 1 3 2 3 4 2 3 3 2 2 1 2 2 1 1 0 2 2 3 5 6 8 10 8 6 8 9 6 6 5 5 5 4 5 5 4 4 5 8 9 10 12 13 15 15
15 11 5 6 6 7 4 4 6 5 4 3 5 5 3 3 3 3 2 1 2 1 0 1 2 2 2 3 4 5 9 9 6 6 7 7 7 6 5 5 6 4 3 4 6 5 6 9 11 13 13 13 14 14
11 5 5 6 7 4 3 4 3 3 3 4 4 4 4 3 3 2 2 2 2 2 1 2 1 2 2 2 4 5 7 10 5 6 13 8 6 6 9 8 8 9 10 4 5 6 6 8 10 11 12 12 11 11
5 7 4 5 4 5 5 3 3 3 3 3 4 3 3 3 3 3 3 3 4 3 1 1 2 2 2 2 3 4 9 9 5 7 12 14 11 8 6 8 10 14 15 10 4 5 6 6 6 8 10 10 10 11
6 7 8 6 4 5 5 5 6 5 3 3 2 3 2 3 3 2 3 5 4 3 3 2 2 2 3 3 3 4 6 8 6 5 10 15 15 9 7 7 6 7 18 14 11 7 2 4 7 9 9 10 10 13
5 5 4 3 2 3 3 2 2 2 4 4 4 5 4 4 4 3 4 3 4 4 5 4 3 3 3 2 4 5 4 4 6 6 6 10 13 14 13 9 9 12 17 13 11 9 7 4 5 7 8 10 11 12
2 5 7 5 3 1 3 3 3 4 3 2 5 4 4 2 2 3 3 6 11 10 9 8 7 6 6 6 6 7 4 4 3 4 3 1 7 13 15 14 15 18 15 13 12 10 7 6 6 9 10 11 11 11
3 4 4 3 3 2 1 1 2 2 1 2 3 2 2 2 2 3 6 12 11 10 6 5 5 4 5 6 8 10 10 10 5 4 5 4 5 8 18 16 17 18 18 18 17 13 11 7 8 10 11 11 12 12
4 3 3 2 3 2 2 2 2 2 3 3 3 3 3 2 3 4 11 11 7 4 5 5 4 2 3 2 4 8 10 11 11 6 4 4 6 13 15 16 16 17 18 18 18 18 14 3 7 8 10 11 12 12
4 2 3 2 2 2 3 3 2 2 2 3 3 3 4 3 3 4 6 6 6 7 7 4 4 3 3 2 2 2 3 6 7 7 7 6 8 10 12 14 14 15 15 16 16 17 16 11 6 8 14 15 15 15
2 2 4 3 3 3 2 1 2 2 2 2 2 2 2 3 4 4 5 7 7 4 3 5 5 5 4 5 6 7 7 4 4 5 7 7 8 10 11 12 13 14 14 14 14 16 17 14 11 9 8 15 16 15
3 3 3 4 4 5 2 2 2 3 2 2 2 1 1 1 3 2 4 5 4 5 8 7 6 8 8 6 5 4 4 3 4 6 7 8 9 10 9 10 11 12 12 12 12 13 16 17 16 16 15 15 13 11
Wind_Direction
298 297 293 293 294 291 291 288 280 272 280 282 279 282 284 281 278 273 272 265 253 268 274 268 264 261 263 258 265 269 312 215 228 231 232 219 241 224 234 234 208 187 192 217 232 237 248 244 267 237 246 255 261 258
295 302 295 300 292 291 285 290 284 269 278 284 282 292 287 283 279 277 276 274 265 252 272 280 261 260 262 253 252 249 250 270 272 284 237 231 221 230 223 232 222 227 210 221 206 220 238 253 259 260 244 256 270 268
302 294 300 297 298 303 282 284 285 276 285 284 287 293 286 283 277 274 275 271 266 257 271 254 249 259 244 242 241 255 230 222 215 220 256 246 249 223 229 233 245 225 229 226 247 242 251 256 254 256 255 250 265 286
301 302 297 295 307 300 292 285 285 282 290 290 293 289 289 288 277 273 274 272 247 272 266 266 226 246 242 231 232 232 246 244 278 207 219 228 231 221 245 253 244 234 227 236 244 254 257 261 254 257 255 256 270 269
308 300 299 295 300 298 298 286 288 280 290 297 291 293 290 286 283 283 280 270 253 207 292 280 276 247 225 216 229 239 229 210 203 210 217 222 236 238 229 268 251 246 240 237 243 255 259 261 263 263 263 259 263 270
307 306 307 310 304 296 298 294 289 285 297 301 298 292 287 287 287 299 280 295 232 195 262 268 57 204 196 223 246 242 234 218 226 230 217 218 262 236 256 255 259 249 239 241 250 256 262 268 273 272 270 264 272 272
309 311 311 309 302 300 290 299 294 295 302 300 295 293 289 285 281 244 271 308 306 206 245 269 250 151 175 219 220 226 202 227 239 234 226 240 226 198 256 266 261 260 262 264 261 265 269 268 266 270 268 269 271 265
315 314 312 308 303 304 302 296 300 300 306 302 299 293 292 288 278 259 253 267 249 243 242 255 252 250 172 219 240 183 214 209 213 252 240 246 228 224 253 255 272 273 274 273 271 268 269 273 272 271 272 271 265 258
323 319 315 310 306 303 307 298 303 301 305 306 306 299 286 211 228 159 259 255 235 237 278 217 244 291 171 219 235 205 228 230 189 232 234 226 232 226 253 289 302 306 303 298 292 286 281 276 273 270 269 266 264 265
316 321 318 312 305 308 309 301 309 311 311 313 315 233 229 196 288 304 207 220 206 198 231 254 266 251 202 214 230 247 196 238 237 211 159 231 255 274 310 341 316 312 305 302 294 286 279 271 265 264 263 261 265 269
332 319 315 316 307 306 307 305 312 319 320 328 316 272 327 300 244 221 236 232 185 227 202 235 242 254 179 246 268 227 245 217 244 152 240 230 259 71 337 327 318 317 312 300 291 286 280 276 273 265 262 261 261 266
319 320 323 306 303 302 305 299 309 307 283 297 292 289 273 240 219 235 213 199 233 257 183 226 194 243 191 231 251 213 253 198 256 138 241 248 96 351 332 325 323 320 315 309 303 295 287 267 259 258 256 259 258 257
314 312 313 316 304 300 305 298 303 302 309 286 199 236 216 182 238 231 198 204 218 193 189 205 225 243 184 217 249 256 232 242 333 231 249 301 360 344 331 325 321 320 321 317 312 308 302 286 251 248 245 242 153 189
316 310 307 315 298 310 312 285 324 327 282 250 245 233 222 199 233 221 255 170 2 283 251 264 264 233 206 216 239 245 235 241 246 241 251 358 351 330 327 321 321 320 323 322 322 327 322 291 258 26 118 153 142 136
314 311 302 300 292 252 300 311 287 289 260 245 235 241 220 241 252 269 293 274 247 289 268 224 240 238 209 233 230 258 216 235 238 349 338 338 329 325 328 326 325 323 328 328 335 341 346 15 59 75 80 92 93 94
317 309 289 304 255 241 298 305 275 222 236 236 238 248 213 241 231 228 243 250 192 275 260 235 262 234 214 222 219 220 234 216 34 336 321 322 325 327 328 329 328 329 335 344 354 2 15 34 57 78 81 81 80 80
313 265 279 315 280 273 293 268 211 204 233 217 230 235 243 271 261 234 243 233 154 268 240 266 240 249 169 243 212 13 14 338 327 318 318 320 323 325 329 329 339 337 346 358 7 21 37 45 61 72 75 73 77 74
297 289 281 294 308 281 244 211 237 243 247 226 235 221 212 243 233 217 218 215 232 219 218 249 308 258 283 281 123 18 333 323 310 315 316 321 323 329 337 339 341 345 354 6 12 23 37 54 60 62 71 74 72 66
295 293 281 276 288 229 234 229 231 257 238 238 234 212 217 198 175 333 132 233 223 354 295 234 236 239 155 13 322 331 332 329 320 317 311 306 328 334 339 348 342 5 13 22 30 42 46 47 52 59 63 69 73 70
291 290 270 282 245 209 227 231 225 254 254 232 209 200 211 230 134 123 107 120 187 205 170 165 135 96 358 350 327 311 317 320 316 314 319 340 345 342 357 356 357 351 5 29 33 35 54 54 48 59 66 71 76 76
292 273 266 227 207 216 259 234 228 242 256 237 199 183 163 158 169 176 136 113 116 102 155 99 120 112 2 336 326 320 317 328 313 308 307 312 328 327 335 350 359 12 16 29 48 50 54 64 68 69 71 79 82 85
271 246 216 197 211 205 240 231 251 294 240 245 181 194 180 183 156 139 127 107 110 103 97 136 73 303 291 339 336 342 334 322 319 317 319 312 312 329 346 349 350 9 28 27 42 63 77 82 85 89 91 88 88 94
257 198 202 191 211 214 241 198 221 206 218 195 167 178 178 153 123 145 109 90 106 108 122 19 344 294 308 344 336 358 358 343 347 350 342 331 314 328 348 358 5 14 42 50 53 65 84 101 107 110 111 108 107 106
210 197 201 197 218 194 183 215 223 223 197 190 191 168 144 141 147 181 162 156 121 153 133 29 344 158 144 57 24 12 359 350 357 10 2 347 342 343 344 337 37 29 14 53 79 96 95 98 112 113 113 116 119 121
185 185 211 203 210 187 196 205 199 196 184 173 152 152 150 169 175 191 185 152 164 150 103 84 76 56 77 72 40 28 20 8 8 17 15 7 353 354 7 27 51 37 17 14 51 106 114 121 115 125 128 128 125 127
200 188 189 199 185 205 194 184 193 183 151 155 141 112 162 179 193 193 165 156 154 151 132 107 117 133 100 39 17 16 8 1 8 40 29 22 22 14 9 11 360 14 5 356 346 342 136 134 140 146 143 144 141 141
183 176 182 206 214 150 153 111 135 165 173 173 163 167 176 204 194 131 133 152 141 123 108 92 69 68 76 53 9 354 341 7 42 53 45 38 36 32 24 10 2 338 336 339 337 326 314 200 180 174 156 152 159 158
165 171 173 153 138 155 153 161 175 182 155 142 154 179 194 187 129 134 118 135 131 127 112 94 82 78 71 53 25 10 8 348 288 284 269 23 35 28 15 3 353 351 351 346 340 325 300 250 205 188 176 171 164 163
125 132 121 123 123 130 141 186 156 96 61 174 141 130 122 70 78 129 137 141 139 136 131 131 113 102 90 70 49 37 27 19 17 34 29 12 1 359 355 353 352 352 352 349 350 344 320 267 219 200 186 175 169 164
135 141 108 110 135 137 96 11 94 84 51 60 98 116 114 92 68 123 142 147 149 144 132 127 125 138 93 76 72 58 43 41 40 31 21 13 350 335 342 345 346 348 350 351 353 353 1 246 198 193 167 160 162 164
124 118 100 84 90 75 84 100 119 104 68 66 32 100 101 103 115 130 153 146 137 136 145 144 126 114 112 102 84 85 84 51 52 43 30 2 349 348 348 348 347 348 350 356 1 7 4 358 339 198 187 181 177 177
77 108 129 120 116 118 160 96 78 77 86 97 90 110 144 153 157 157 165 154 155 171 173 160 149 140 126 111 99 90 93 88 46 18 7 1 353 349 349 352 354 356 357 1 10 15 18 21 17 10 206 177 171 173
104 87 95 111 136 160 124 134 78 107 86 98 92 70 85 164 148 129 167 176 190 183 164 152 127 129 134 124 119 112 89 57 27 11 5 4 2 1 0 356 356 358 1 8 14 20 25 31 38 41 49 68 93 111
Height
729 727 725 724 722 720 719 718 717 717 717 716 715 715 714 714 713 714 709 711 710 701 687 690 684 682 679 678 671 663 670 664 662 655 644 637 631 620 627 617 625 643 652 645 649 653 644 591 596 608 598 595 595 599
723 721 720 718 716 714 713 712 710 710 711 710 708 708 707 707 707 706 703 702 702 698 681 678 672 668 666 664 668 663 661 658 655 648 640 631 628 616 610 610 611 612 616 616 618 609 596 585 590 591 595 598 589 593
717 716 714 712 710 708 706 705 704 704 704 703 702 701 699 699 699 699 696 694 694 687 674 666 653 650 651 650 654 657 653 653 649 645 640 632 626 612 610 606 601 595 599 606 609 585 588 585 588 588 588 586 583 588
712 710 709 706 704 702 700 700 698 698 698 696 694 693 692 691 691 690 687 684 683 677 660 641 643 643 640 641 644 646 646 647 645 644 637 628 622 607 600 594 592 592 593 594 593 584 579 578 581 580 581 583 580 581
708 705 703 701 699 696 695 694 693 692 691 689 687 685 684 683 682 680 674 668 667 668 648 639 637 635 637 638 639 639 639 640 638 634 626 619 614 615 605 606 592 589 589 588 580 574 576 572 574 574 576 575 575 576
702 701 698 695 694 691 690 688 686 686 684 682 680 678 677 676 675 672 661 653 651 654 652 637 631 634 636 637 636 634 634 634 633 624 617 616 612 611 602 586 578 579 579 577 567 569 568 567 569 567 567 567 571 571
697 695 693 690 688 686 684 683 681 680 678 675 672 670 669 668 668 667 655 653 653 653 649 636 622 628 632 634 633 632 632 630 627 621 616 607 605 612 603 590 575 573 572 572 570 570 568 565 561 561 558 558 561 560
692 691 688 686 684 682 680 678 676 674 671 668 665 662 660 659 658 654 650 651 650 650 647 632 620 623 629 626 624 627 624 626 621 614 609 602 598 604 593 573 572 569 566 564 563 562 559 557 555 551 550 551 550 547
688 686 683 681 679 677 675 673 671 668 665 662 658 653 652 651 648 647 648 648 647 649 634 626 614 609 627 621 624 623 624 617 615 612 606 602 589 588 572 566 565 565 565 562 558 557 554 551 545 541 538 537 536 535
685 682 679 677 675 673 671 669 666 664 661 656 652 651 647 647 646 647 645 643 642 639 637 623 611 611 618 614 612 613 614 607 601 593 600 599 578 571 571 573 571 569 567 562 556 550 546 539 538 534 527 525 523 522
680 677 675 673 671 669 667 665 663 660 657 655 652 648 646 645 644 640 637 633 626 623 618 613 610 607 614 613 609 606 601 599 594 582 589 575 570 568 572 572 570 568 566 562 557 550 544 539 530 524 517 514 513 511
677 674 670 668 666 665 663 661 659 658 656 655 655 651 648 642 637 634 624 619 619 608 610 609 608 609 610 613 610 602 597 599 587 589 588 574 567 574 574 571 567 564 560 554 548 542 533 523 519 517 511 507 503 504
672 669 666 663 661 660 658 657 655 655 653 650 650 646 639 632 632 620 614 606 607 603 605 606 608 608 611 613 608 602 597 587 587 586 574 565 571 577 575 572 566 561 555 549 541 532 521 505 505 504 502 501 506 510
667 664 661 658 656 655 653 653 653 652 651 647 638 631 627 621 616 603 598 603 603 604 604 607 608 604 602 606 598 599 586 589 584 579 570 570 582 583 578 573 568 560 554 547 538 529 517 500 496 500 503 507 509 511
662 658 656 652 651 651 651 651 651 651 648 643 635 620 613 607 609 608 609 608 604 608 609 610 608 602 598 601 592 589 589 582 571 575 578 586 587 584 579 574 568 561 555 547 540 532 523 515 510 509 511 512 513 515
657 653 649 648 647 648 648 647 646 646 643 635 625 614 610 611 607 609 607 607 608 610 609 607 598 597 592 587 585 581 575 573 584 593 594 593 588 583 579 575 569 563 556 549 543 537 532 527 522 519 519 520 522 524
653 649 646 646 645 645 644 644 643 638 630 620 612 608 609 608 604 604 605 605 610 609 600 596 597 584 586 582 577 591 596 602 603 601 598 596 591 586 581 576 571 565 559 554 549 544 540 536 532 529 529 532 532 534
647 644 643 642 640 639 638 637 633 624 615 607 607 603 608 605 603 604 604 608 608 604 604 596 597 588 587 585 588 606 610 610 608 604 600 597 592 588 584 579 574 569 564 560 556 552 548 544 540 540 540 540 540 541
641 639 637 636 635 636 633 630 627 614 605 603 603 606 604 603 608 608 607 609 609 609 606 600 599 594 600 612 613 613 615 614 612 606 599 594 592 589 586 582 578 574 570 566 562 559 557 554 553 552 552 551 552 555
634 631 630 629 629 631 627 622 621 612 602 597 600 600 599 600 606 610 610 610 608 608 608 607 607 615 617 621 624 623 621 619 616 606 596 594 591 590 587 585 582 579 575 572 570 567 565 564 564 564 564 564 563 566
628 622 622 623 623 624 619 612 609 603 598 596 596 597 598 604 604 606 609 612 612 613 611 618 621 624 627 628 627 625 622 621 617 613 607 601 596 593 590 587 584 582 579 577 576 576 575 575 575 574 574 575 576 578
620 617 617 617 617 616 613 606 602 600 599 593 595 594 596 599 604 610 613 613 616 621 623 624 626 626 625 626 628 627 626 622 617 614 610 607 598 594 591 590 587 585 584 583 581 582 582 582 582 583 583 583 582 585
615 612 611 610 610 607 603 601 600 593 593 589 591 592 596 601 607 611 615 619 623 629 629 628 630 630 628 629 629 628 627 623 617 616 613 609 603 597 594 592 591 589 587 588 587 587 587 588 590 590 591 592 592 593
606 604 602 599 598 597 598 597 592 588 587 587 586 590 598 603 611 611 612 618 625 629 629 631 628 627 628 629 628 629 629 625 621 619 618 613 607 602 600 596 595 595 594 592 592 592 592 591 592 592 593 596 598 599
597 598 597 593 593 593 594 591 589 589 590 594 595 599 602 606 606 609 610 620 624 627 630 631 630 629 627 629 630 631 632 629 625 622 623 620 615 608 604 601 602 602 601 596 595 595 596 596 596 597 598 600 600 603
588 589 589 585 587 587 584 588 590 590 591 594 599 605 605 604 605 603 613 621 625 628 631 631 630 630 631 634 632 632 633 632 628 627 628 626 623 620 615 611 608 606 608 606 603 599 598 599 600 602 603 604 606 609
583 581 583 584 583 585 588 590 591 590 592 593 598 605 602 598 599 614 623 627 627 632 634 636 635 634 635 636 637 636 636 635 633 633 632 631 629 627 625 623 618 617 613 610 607 605 602 601 601 603 605 607 610 611
574 575 579 584 586 586 588 589 589 588 591 596 597 598 597 596 607 619 621 628 631 634 636 638 639 640 640 640 640 638 636 635 634 633 632 632 632 630 628 625 622 617 613 610 607 605 603 603 603 604 605 607 610 613
577 579 582 591 590 591 593 590 590 596 601 597 598 606 613 618 623 624 628 630 633 635 637 640 642 643 643 643 642 641 640 638 635 634 633 632 633 632 631 627 624 619 615 611 607 604 602 601 601 603 605 607 610 612
580 581 586 591 589 589 598 604 602 608 608 608 610 615 618 624 629 630 631 632 634 635 638 640 642 642 642 642 644 645 645 644 643 641 639 639 640 638 635 631 627 623 619 615 610 604 600 599 599 602 604 606 609 612
580 583 588 591 595 602 607 612 613 612 612 614 617 613 617 624 630 633 633 634 636 639 640 642 643 644 644 645 644 644 646 648 647 646 645 645 643 640 637 633 630 626 623 619 615 610 606 603 601 600 602 604 607 610
583 584 587 593 600 609 611 608 608 608 612 611 618 623 626 621 623 630 634 636 637 638 640 641 642 644 646 646 647 647 648 648 648 648 647 645 644 641 639 635 632 629 625 622 619 616 612 609 606 603 600 602 605 609
589 590 591 594 599 600 608 605 607 610 613 614 621 625 623 618 621 629 634 635 637 636 640 642 643 645 646 648 649 649 649 649 648 648 647 645 644 642 640 638 635 632 629 627 624 622 620 617 614 611 608 606 608 610